TimeEDT,TemperatureF,Dew PointF,Humidity,Sea Level PressureIn,VisibilityMPH,Wind Direction,Wind SpeedMPH,Gust SpeedMPH,PrecipitationIn,Events,Conditions,WindDirDegrees,DateUTC
12:15 AM,24.8,19.4,80,29.95,10.0,NNW,5.8,-,N/A,,Overcast,340,2013-03-17 04:15:00
12:35 AM,23.0,19.4,86,29.95,10.0,NNW,4.6,-,N/A,,Overcast,340,2013-03-17 04:35:00
12:55 AM,23.0,19.4,86,29.97,10.0,WNW,4.6,-,N/A,,Overcast,300,2013-03-17 04:55:00
1:15 AM,23.0,17.6,80,29.97,10.0,NNW,3.5,-,N/A,,Overcast,330,2013-03-17 05:15:00
1:35 AM,23.0,19.4,86,29.97,10.0,North,3.5,-,N/A,,Overcast,350,2013-03-17 05:35:00
1:55 AM,23.0,17.6,80,29.98,10.0,Calm,Calm,-,N/A,,Overcast,0,2013-03-17 05:55:00
2:15 AM,21.2,17.6,86,29.99,10.0,NW,3.5,-,N/A,,Overcast,310,2013-03-17 06:15:00
2:35 AM,21.2,19.4,93,29.99,10.0,Calm,Calm,-,N/A,,Overcast,0,2013-03-17 06:35:00
2:55 AM,23.0,19.4,86,29.99,10.0,North,3.5,-,N/A,,Overcast,360,2013-03-17 06:55:00
3:15 AM,23.0,19.4,86,29.99,10.0,Calm,Calm,-,N/A,,Overcast,0,2013-03-17 07:15:00
3:35 AM,23.0,19.4,86,29.99,10.0,NW,3.5,-,N/A,,Overcast,320,2013-03-17 07:35:00
3:55 AM,24.8,19.4,80,30.00,10.0,Calm,Calm,-,N/A,,Overcast,0,2013-03-17 07:55:00
4:15 AM,24.8,19.4,80,29.99,10.0,NW,3.5,-,N/A,,Overcast,320,2013-03-17 08:15:00
4:35 AM,24.8,19.4,80,29.99,10.0,WNW,3.5,-,N/A,,Overcast,300,2013-03-17 08:35:00
4:55 AM,24.8,17.6,74,29.99,10.0,WNW,3.5,-,N/A,,Overcast,290,2013-03-17 08:55:00
5:15 AM,24.8,19.4,80,30.00,10.0,WNW,4.6,-,N/A,,Overcast,300,2013-03-17 09:15:00
5:35 AM,24.8,19.4,80,30.01,10.0,West,3.5,-,N/A,,Overcast,280,2013-03-17 09:35:00
5:55 AM,24.8,19.4,80,30.01,10.0,WNW,4.6,-,N/A,,Overcast,290,2013-03-17 09:55:00
6:15 AM,24.8,19.4,80,30.02,10.0,Calm,Calm,-,N/A,,Overcast,0,2013-03-17 10:15:00
6:35 AM,24.8,19.4,80,30.03,10.0,Calm,Calm,-,N/A,,Overcast,0,2013-03-17 10:35:00
6:55 AM,24.8,19.4,80,30.05,10.0,NW,3.5,-,N/A,,Overcast,310,2013-03-17 10:55:00
7:15 AM,24.8,19.4,80,30.05,10.0,West,4.6,-,N/A,,Overcast,260,2013-03-17 11:15:00
7:35 AM,24.8,19.4,80,30.06,10.0,WSW,3.5,-,N/A,,Overcast,250,2013-03-17 11:35:00
7:55 AM,24.8,19.4,80,30.06,10.0,West,3.5,-,N/A,,Overcast,260,2013-03-17 11:55:00
8:15 AM,24.8,19.4,80,30.07,10.0,West,3.5,-,N/A,,Overcast,260,2013-03-17 12:15:00
8:35 AM,24.8,21.2,86,30.08,10.0,Calm,Calm,-,N/A,,Overcast,0,2013-03-17 12:35:00
8:55 AM,24.8,21.2,86,30.09,10.0,West,3.5,-,N/A,,Overcast,260,2013-03-17 12:55:00
9:15 AM,26.6,21.2,80,30.09,10.0,West,3.5,-,N/A,,Overcast,270,2013-03-17 13:15:00
9:35 AM,26.6,21.2,80,30.10,9.0,WSW,3.5,-,N/A,,Overcast,250,2013-03-17 13:35:00
9:55 AM,26.6,21.2,80,30.11,7.0,West,4.6,-,N/A,,Overcast,280,2013-03-17 13:55:00
10:15 AM,26.6,21.2,80,30.11,6.0,West,4.6,-,N/A,,Overcast,270,2013-03-17 14:15:00
10:35 AM,26.6,23.0,86,30.12,5.0,West,4.6,-,N/A,,Overcast,260,2013-03-17 14:35:00
10:55 AM,26.6,21.2,80,30.13,4.0,WNW,4.6,-,N/A,,Overcast,290,2013-03-17 14:55:00
11:15 AM,26.6,21.2,80,30.14,9.0,WNW,5.8,-,N/A,,Overcast,290,2013-03-17 15:15:00
11:35 AM,28.4,21.2,74,30.15,10.0,NW,3.5,-,N/A,,Overcast,320,2013-03-17 15:35:00
11:55 AM,26.6,21.2,80,30.15,10.0,North,4.6,-,N/A,,Overcast,350,2013-03-17 15:55:00
12:15 PM,26.6,19.4,74,30.15,10.0,NNW,5.8,-,N/A,,Overcast,340,2013-03-17 16:15:00
12:35 PM,26.6,19.4,74,30.15,10.0,North,6.9,-,N/A,,Overcast,10,2013-03-17 16:35:00
12:55 PM,26.6,19.4,74,30.15,10.0,North,3.5,-,N/A,,Overcast,360,2013-03-17 16:55:00
1:15 PM,26.6,19.4,74,30.15,10.0,North,6.9,-,N/A,,Overcast,10,2013-03-17 17:15:00
1:35 PM,28.4,19.4,69,30.15,10.0,NNE,8.1,-,N/A,,Overcast,30,2013-03-17 17:35:00
1:55 PM,28.4,17.6,64,30.15,10.0,Calm,Calm,-,N/A,,Overcast,0,2013-03-17 17:55:00
2:15 PM,28.4,17.6,64,30.15,10.0,North,3.5,-,N/A,,Overcast,10,2013-03-17 18:15:00
2:35 PM,28.4,17.6,64,30.15,10.0,North,4.6,-,N/A,,Overcast,360,2013-03-17 18:35:00
2:55 PM,28.4,17.6,64,30.14,10.0,Calm,Calm,-,N/A,,Overcast,0,2013-03-17 18:55:00
3:15 PM,28.4,17.6,64,30.14,10.0,North,3.5,-,N/A,,Overcast,10,2013-03-17 19:15:00
3:35 PM,30.2,17.6,60,30.15,10.0,Calm,Calm,-,N/A,,Overcast,0,2013-03-17 19:35:00
3:55 PM,30.2,17.6,60,30.15,10.0,NNE,3.5,-,N/A,,Overcast,20,2013-03-17 19:55:00
4:15 PM,30.2,17.6,60,30.15,10.0,Calm,Calm,-,N/A,,Overcast,0,2013-03-17 20:15:00
4:35 PM,30.2,17.6,60,30.15,10.0,NE,4.6,-,N/A,,Mostly Cloudy,50,2013-03-17 20:35:00
4:55 PM,30.2,15.8,55,30.15,10.0,Calm,Calm,-,N/A,,Scattered Clouds,0,2013-03-17 20:55:00
5:15 PM,30.2,15.8,55,30.15,10.0,North,3.5,-,N/A,,Partly Cloudy,350,2013-03-17 21:15:00
5:35 PM,30.2,15.8,55,30.15,10.0,NE,3.5,-,N/A,,Scattered Clouds,50,2013-03-17 21:35:00
5:55 PM,30.2,15.8,55,30.15,10.0,North,3.5,-,N/A,,Partly Cloudy,10,2013-03-17 21:55:00
6:15 PM,28.4,15.8,59,30.16,10.0,NNE,4.6,-,N/A,,Clear,20,2013-03-17 22:15:00
6:35 PM,28.4,12.2,51,30.16,10.0,NNE,4.6,-,N/A,,Clear,20,2013-03-17 22:35:00
6:55 PM,28.4,14.0,55,30.16,10.0,NNE,4.6,-,N/A,,Clear,30,2013-03-17 22:55:00
7:15 PM,28.4,12.2,51,30.17,10.0,NNE,5.8,-,N/A,,Clear,20,2013-03-17 23:15:00
7:35 PM,28.4,14.0,55,30.17,10.0,NNE,3.5,-,N/A,,Clear,30,2013-03-17 23:35:00
7:55 PM,28.4,14.0,55,30.17,10.0,NNE,3.5,-,N/A,,Clear,30,2013-03-17 23:55:00
8:15 PM,26.6,12.2,55,30.18,10.0,NNE,4.6,-,N/A,,Clear,20,2013-03-18 00:15:00
8:35 PM,26.6,15.8,64,30.18,10.0,Calm,Calm,-,N/A,,Clear,0,2013-03-18 00:35:00
8:55 PM,26.6,14.0,59,30.18,10.0,NE,3.5,-,N/A,,Clear,40,2013-03-18 00:55:00
9:15 PM,26.6,15.8,64,30.18,10.0,NE,4.6,-,N/A,,Clear,40,2013-03-18 01:15:00
9:35 PM,26.6,15.8,64,30.18,10.0,NE,4.6,-,N/A,,Clear,40,2013-03-18 01:35:00
9:55 PM,24.8,14.0,64,30.18,10.0,NE,5.8,-,N/A,,Clear,40,2013-03-18 01:55:00
10:15 PM,24.8,14.0,64,30.19,10.0,NE,4.6,-,N/A,,Clear,40,2013-03-18 02:15:00
10:35 PM,24.8,14.0,64,30.19,10.0,NE,3.5,-,N/A,,Clear,40,2013-03-18 02:35:00
10:55 PM,24.8,14.0,64,30.18,10.0,NE,3.5,-,N/A,,Clear,40,2013-03-18 02:55:00
11:15 PM,23.0,15.8,74,30.18,10.0,Calm,Calm,-,N/A,,Clear,0,2013-03-18 03:15:00
11:35 PM,23.0,15.8,74,30.18,10.0,ENE,4.6,-,N/A,,Clear,60,2013-03-18 03:35:00
11:55 PM,23.0,15.8,74,30.17,10.0,ENE,4.6,-,N/A,,Clear,60,2013-03-18 03:55:00